Mitchell, SD

8:53 PM CST on January 18, 2018 (GMT -0600)
Mitchell Municipal

Weather History for KMHE - January, 2013

Change the Weather History Date:

Sunday, January 6, 2013

  Actual Average Record
Temperature  
Mean Temperature 21 °F 18 °F  
Max Temperature 32 °F 27 °F 57 °F (1896)
Min Temperature 9 °F 10 °F -32 °F (1988)
Degree Days  
Heating Degree Days 44 47  
Month to date heating degree days 289 279  
Since 1 July heating degree days 3139 3214  
Cooling Degree Days 0 0  
Month to date cooling degree days 0 0  
Year to date cooling degree days 0 0  
Moisture  
Dew Point 13 °F    
Average Humidity 80    
Maximum Humidity 91    
Minimum Humidity 69    
Precipitation  
Precipitation 0.00 in 0.01 in 0.11 in (1937)
Month to date precipitation T 0.04  
Year to date precipitation T 0.04  
Snow  
Snow 0.00 in - 3.90 in (2010)
Month to date snowfall T  
Since 1 July snowfall 10.4  
Snow Depth 4.00 in    
Sea Level Pressure  
Sea Level Pressure 30.17 in    
Wind  
Wind Speed 9 mph (SSW)    
Max Wind Speed 24 mph    
Max Gust Speed 30 mph    
Visibility 10 miles    
Events      
T = Trace of Precipitation, MM = Missing Value Source: NWS Daily Summary

Daily Weather History Graph

Daily Weather History Graph

Search for Another Location

Airport or City:

Trip Planner

Search our weather history database for the weather conditions in past years. The results will help you decide how hot, cold, wet, or windy it might be!

Date:

Astronomy

Jan. 06, 2013 Rise Set
Actual Time 8:05 AM CST 5:10 PM CST
Civil Twilight 7:33 AM CST 5:43 PM CST
Nautical Twilight 6:57 AM CST 6:19 PM CST
Astronomical Twilight 6:22 AM CST 6:54 PM CST
Moon 2:17 AM CST (1/6) 12:42 PM CST (1/6)
Length of Visible Light 10h 09m
Length of Day
9h 04m
Waning Crescent, 33% of the Moon is Illuminated
Jan 6
Waning Crescent
Jan 11
New
Jan 18
First Quarter
Jan 26
Full
Feb 3
Last Quarter

Hourly Weather History & Observations

Time (CST) Temp. Windchill Dew Point Humidity Pressure Visibility Wind Dir Wind Speed Gust Speed Precip Events Conditions
12:53 AM 9.0 °F 0.6 °F 6.1 °F 88% 30.27 in 10.0 mi West 4.6 mph - N/A   Clear
1:53 AM 10.0 °F -1.9 °F 6.1 °F 84% 30.26 in 10.0 mi WSW 8.1 mph - N/A   Clear
2:53 AM 10.9 °F -0.8 °F 7.0 °F 84% 30.27 in 10.0 mi WSW 8.1 mph - N/A   Clear
3:53 AM 10.9 °F 0.2 °F 7.0 °F 84% 30.28 in 10.0 mi WSW 6.9 mph - N/A   Clear
4:53 AM 10.0 °F 0.4 °F 6.1 °F 84% 30.27 in 10.0 mi WSW 5.8 mph - N/A   Clear
5:53 AM 10.0 °F -1.9 °F 6.1 °F 84% 30.28 in 10.0 mi West 8.1 mph - N/A   Clear
6:53 AM 10.0 °F -2.9 °F 5.0 °F 80% 30.29 in 10.0 mi West 9.2 mph - N/A   Clear
7:53 AM 10.9 °F 0.2 °F 7.0 °F 84% 30.29 in 10.0 mi West 6.9 mph - N/A   Clear
8:53 AM 10.9 °F 2.9 °F 6.1 °F 81% 30.30 in 10.0 mi West 4.6 mph - N/A   Clear
9:53 AM 12.9 °F 6.9 °F 8.1 °F 81% 30.31 in 10.0 mi WSW 3.5 mph - N/A   Clear
10:53 AM 17.1 °F 11.7 °F 10.9 °F 77% 30.32 in 10.0 mi West 3.5 mph - N/A   Clear
1:53 PM 24.1 °F 13.7 °F 17.1 °F 75% 30.20 in 10.0 mi SSE 10.4 mph - N/A   Clear
2:53 PM 25.0 °F 14.8 °F 18.0 °F 75% 30.17 in 10.0 mi SSE 10.4 mph - N/A   Clear
3:53 PM 25.0 °F 12.2 °F 18.0 °F 75% 30.13 in 10.0 mi SSE 16.1 mph - N/A   Clear
4:53 PM 24.1 °F 11.0 °F 18.0 °F 77% 30.11 in 10.0 mi SSE 16.1 mph - N/A   Clear
5:53 PM 24.1 °F 11.5 °F 18.0 °F 77% 30.07 in 10.0 mi SSE 15.0 mph - N/A   Clear
6:53 PM 25.0 °F 12.2 °F 19.0 °F 78% 30.04 in 10.0 mi SSE 16.1 mph - N/A   Clear
7:53 PM 26.1 °F 12.7 °F 19.9 °F 78% 29.99 in 10.0 mi SSE 18.4 mph - N/A   Clear
8:53 PM 28.0 °F 14.6 °F 21.0 °F 75% 29.96 in 10.0 mi SSE 20.7 mph - N/A   Clear
9:53 PM 26.1 °F 17.6 °F 19.9 °F 78% 29.95 in 10.0 mi SSE 8.1 mph - N/A   Clear
10:53 PM 30.9 °F 25.2 °F 21.9 °F 69% 29.94 in 10.0 mi South 5.8 mph - N/A   Clear
11:53 PM 32.0 °F 21.6 °F 23.0 °F 69% 29.93 in 10.0 mi SSW 15.0 mph - N/A   Clear